Regional Weather Roundup
Issued by NWS

Home | Current Version | Previous Version | Graphics & Text | Print | Product List | Glossary On
Versions: 1 2 3 4 5 6 7 8 9 10 11 12 13 14 15 16 17 18 19 20 21 22 23 24 25 26 27 28 29 30 31 32 33 34 35 36 37 38 39 40 41 42 43 44 45 46 47 48 49 50
000
ASUS45 KTFX 300819
RWRMT
MONTANA HOURLY WEATHER ROUNDUP
NATIONAL WEATHER SERVICE GREAT FALLS MT
219 AM MDT SAT AUG 30 2014

NOTE: "FAIR" INDICATES FEW OR NO CLOUDS BELOW 12000 FEET WITH NO
SIGNIFICANT WEATHER AND/OR OBSTRUCTIONS TO VISIBILITY.

* THESE STATIONS ARE NOT UNDER NWS QUALITY CONTROL. THEY DO NOT
   REPORT WEATHER SUCH AS PRECIPITATION OR FOG.

MTZ001>007-043-300900-
WEST OF THE DIVIDE
CITY           SKY/WX    TMP DP  RH WIND       PRES   REMARKS
KALISPELL      CLOUDY    61  43  52 SW7       29.81R
MISSOULA       CLOUDY    70  37  30 NW16G23   29.87R
BUTTE          MOCLDY    52  46  80 SE6       29.93F
MULLAN PASS    CLOUDY    54  39  57 VRB5      29.97F
* LINCOLN      N/A       47  39  74 E2         N/A
* LOOKOUT PASS N/A       60  41  50 SE4        N/A
* POLSON       N/A       64  37  37 S1G6       N/A
* RONAN APT    CLOUDY    66  45  47 N/A        N/A
* SEELEY LAKE  N/A       53  41  64 NE1        N/A
* THOMP F APT  CLOUDY    56  42  60 NE2G7      N/A
$$

MTZ008-052>055-300900-
SOUTHWEST MONTANA
CITY           SKY/WX    TMP DP  RH WIND       PRES   REMARKS
BOZEMAN        MOCLDY    61  48  62 E5        29.86F
DILLON         MOCLDY    61  45  56 S8        29.89F
W YELLOWSTONE  PTCLDY    45  41  86 CALM      30.07F
* THREE FORKS  MOCLDY    63  63 100 N/A        N/A
* BOULDER HILL N/A       55  43  64 SW6        N/A
* MONIDA PASS  N/A       56  42  60 SE11       N/A
* RAYNOLDS PAS N/A       50  37  61 S8         N/A
* WHITEHALL    N/A       61  47  60 N5         N/A
* WISE RIVER   N/A       52  43  72 W3         N/A
$$

MTZ009>010-012-014-046-048-049-054-300900-
EAST SLOPES AND CENTRAL MONTANA
CITY           SKY/WX    TMP DP  RH WIND       PRES   REMARKS
CUT BANK       MOCLDY    64  37  37 W14       29.77S
GREAT FALLS    MOCLDY    64  43  47 SW12      29.79R
HELENA         MOCLDY    61  45  56 SW5       29.83S
MALMSTROM AFB  MOCLDY    64  45  50 S9        29.80R
* CONRAD       MOCLDY    66  41  40 SW13       N/A
* EAST GLACIER N/A       64  29  27 W19G32     N/A
* MONARCH      N/A       57  44  62 S17        N/A
* PENDROY      N/A       58  33  39 W8         N/A
* ROGERS PASS  N/A       55  33  43 NW2        N/A
* SAINT MARY   N/A       64  34  33 SW9G22     N/A
* SWEET GRASS  N/A       59  57  93 S15        N/A
* WHITE SULPH  N/A       59  52  78 E10G17     N/A
$$

MTZ011-013-016-021-035-040-045-047-050-051-300900-
NORTH CENTRAL MONTANA
CITY           SKY/WX    TMP DP  RH WIND       PRES   REMARKS
HAVRE          MOCLDY    70  52  53 S6        29.69F
LEWISTOWN      PTCLDY    61  52  72 SE6       29.84F
* CHINOOK      PTCLDY    63  54  73 E12       29.70F
* FORT BENTON  MOCLDY    59  52  78 CALM      29.75S
* CHESTER      N/A       59  51  75 S1         N/A
* DENTON       N/A       67  52  59 S21G26     N/A
* GEYSER       N/A       61  49  65 SE12       N/A
* JUDITH GAP   N/A       58  53  84 SW12       N/A
* LOMA         N/A       62  53  73 E7         N/A
$$

MTZ017>020-022>027-061-062-300900-
NORTHEAST MONTANA
CITY           SKY/WX    TMP DP  RH WIND       PRES   REMARKS
GLASGOW        CLEAR     55  52  90 E13       29.84F
GLENDIVE       CLEAR     55  52  90 S6        29.93F
JORDAN         CLEAR     61  52  72 SE10      29.84F
SIDNEY         CLEAR     54  52  93 S7        29.94F
WOLF POINT     CLEAR     57  52  83 NE6       29.89F
* BEAVER HILL  N/A       55  51  86 SE15G20    N/A
* CIRCLE       N/A       56  52  87 SE3G8      N/A
* LINDSAY DVD  N/A       50  49  96 SE6        N/A
* NAVAJO       N/A       54  49  83 S9         N/A
$$

MTZ028>042-056>058-300900-
SOUTHCENTRAL AND SOUTHEAST MONTANA
CITY           SKY/WX    TMP DP  RH WIND       PRES   REMARKS
BAKER          CLEAR     54  52  93 SE9       29.97F
BILLINGS       PTCLDY    64  52  65 E5        29.84F
LIVINGSTON     CLOUDY    68  43  40 SW7       29.87F
MILES CITY     CLEAR     59  50  72 SE10      29.89F
* LAUREL APT   PTCLDY    59  52  78 NW5        N/A
* ROUNDUP APT  PTCLDY    57  50  78 N/A        N/A
* ALZADA       N/A       54  51  90 E8         N/A
* HYSHAM       N/A       65  48  54 SE8G17     N/A
* LAME DEER    N/A       59  51  75 SE8        N/A
* REED POINT   N/A       61  56  84 N/A        N/A
* ROSCOE HILL  N/A       65  30  27 SE10       N/A
$$

REGIONAL REPORTS...DAKOTAS
CITY           SKY/WX    TMP DP  RH WIND       PRES   REMARKS
WILLISTON      CLEAR     57  52  83 CALM      29.94F
DICKINSON      FAIR      52  48  86 SE8       29.97F
BEACH          N/A       50  50 100 SE10      29.96F
CROSBY         CLEAR     52  52 100 S9        29.94F
TIOGA          CLEAR     45  45 100 CALM      29.99F
WATFORD CITY   CLEAR     48  48 100 E3        29.94S
BISMARCK       CLEAR     46  46 100 CALM      30.00R
GRAND FORKS    CLEAR     54  50  86 N9        29.92S
FARGO          CLOUDY    61  54  78 N15       29.89R
BUFFALO SD     CLEAR     54  52  93 SE9       29.93F
RAPID CITY     CLEAR     52  48  86 CALM      30.02F
$$

REGIONAL REPORTS...WYOMING/IDAHO/WASHINGTON
CITY           SKY/WX    TMP DP  RH WIND       PRES   REMARKS
GILLETTE       CLEAR     61  52  72 SE13      29.99F
SHERIDAN       CLEAR     54  46  74 N3        29.90F
CODY           PTCLDY    59  45  60 SW5       29.95F
YELLOWSTONE LA CLEAR     43  39  86 CALM      30.18S
SALMON         CLOUDY    66  48  52 E3        29.85R
MULLAN PASS    CLOUDY    54  39  57 VRB5      29.97S
SAND POINT     PTCLDY    54  46  74 W3        29.80R
SPOKANE        MOCLDY    61  43  52 SW10      29.84R
$$

REGIONAL REPORTS...ALBERTA
CITY           SKY/WX    TMP DP  RH WIND       PRES   REMARKS
CALGARY        FAIR      55  41  59 N9G17     29.70S
LETHBRIDGE     FAIR      55  46  72 SW9       29.72R
MEDICINE HAT   CLEAR     64  54  70 SW14      29.65R
EDMONTON       LGT RAIN  52  50  93 N5        29.69S
WATERTON GATE  N/A       63  39  41 W17G29     N/A
CARDSTON       N/A       55  41  59 S5         N/A
MILK RIVER     N/A       55  50  83 W3         N/A
$$

REGIONAL REPORTS...SASKATCHEWAN
CITY           SKY/WX    TMP DP  RH WIND       PRES   REMARKS
SWIFT CURRENT  FAIR      57  50  78 S20G28    29.74F
REGINA         N/A       52  46  80 SE13      29.88F
VAL MARIE      N/A       59  50  72 SE14       N/A
ASSINIBOIA     N/A       52  46  80 SE7        N/A
CORONACH       N/A       50  48  93 SE7        N/A

$$




USA.gov is the U.S. government's official web portal to all federal, state and local government web resources and services.